Flag for U.S.A. Weather past 2 weeks in Vincennes, Indiana, U.S.A.

Now
43 °F

Clear.


Feels Like: 39 °F
Forecast: 38 / 61 °F
Wind: 7 mph from Northeast

Location: Lawrenceville-Vincennes International Airport

Current Time: Oct 22, 2014 at 5:05:49 AM

Latest Report: Oct 22, 2014 at 3:53 AM


Visibility: 10 mi

Pressure: 30.23 "Hg

Humidity: 93%

Dew point: 41 °F

Location of VincennesLocation

Historic Weather in Vincennes — Graph

°F

Vincennes temperature yesterday

Maximum temperature yesterday: 64 °F (at 2:53 PM)
Minimum temperature yesterday: 42 °F (at 7:53 AM)
Average temperature yesterday: 52 °F

Past Weeks' High & Low Weather Summary

 TemperatureHumidityPressure
High77 °F (Oct 13, 3:53 PM)100% (Oct 10, 12:53 PM)30.28 "Hg (Oct 10, 12:53 PM)
Low42 °F (Oct 21, 7:53 AM)32% (Oct 8, 4:53 PM)29.51 "Hg (Oct 14, 6:53 AM)
Average56 °F81%29.95 "Hg
* Reported Oct 7 3:53 AM — Oct 22 3:53 AM, Vincennes, Weather by CustomWeather, © 2014

Note: Actual official high and low records may vary slightly from our data, if they occured in-between our weather recording intervals... More about our weather records

Advertising

Vincennes weather history for previous 24 hours

 ConditionsComfort  
Time TempWeatherWind HumidityBarometerVisibility
3:53 AM
Oct 22
43 °FClear.7 mph93%30.23 "Hg10 mi
2:53 AM44 °FClear.7 mph89%30.22 "Hg10 mi
1:53 AM46 °FClear.9 mph86%30.21 "Hg10 mi
12:53 AM48 °FClear.13 mph83%30.21 "Hg10 mi
11:53 PM
Oct 21
48 °FClear.8 mph86%30.21 "Hg10 mi
10:53 PM47 °FClear.8 mph86%30.20 "Hg10 mi
9:53 PM50 °FClear.9 mph71%30.19 "Hg10 mi
8:53 PM50 °FClear.7 mph71%30.16 "Hg10 mi
7:53 PM52 °FSunny.8 mph69%30.15 "Hg10 mi
6:53 PM57 °FSunny.9 mph53%30.14 "Hg10 mi
5:53 PM60 °FPassing clouds.14 mph47%30.13 "Hg10 mi
4:53 PM60 °FScattered clouds.13 mph52%30.12 "Hg10 mi
3:53 PM64 °FPartly sunny.16 mph45%30.10 "Hg10 mi
2:53 PM64 °FPartly sunny.14 mph45%30.10 "Hg10 mi
1:53 PM60 °FPartly sunny.13 mph52%30.11 "Hg10 mi
12:53 PM59 °FMostly cloudy.13 mph60%30.12 "Hg10 mi
11:53 AM59 °FPartly sunny.12 mph64%30.11 "Hg10 mi
10:53 AM57 °FPartly sunny.7 mph74%30.11 "Hg8 mi
9:53 AM50 °FFog.3 mph93%30.10 "Hg5 mi
8:53 AM44 °FFog.No wind96%30.08 "Hg4 mi
7:53 AM42 °FClear.5 mph96%30.06 "Hg9 mi
6:53 AM43 °FClear.3 mph97%30.04 "Hg9 mi
5:53 AM45 °FClear.3 mph93%30.02 "Hg10 mi
Weather by CustomWeather, © 2014

See weather overviewHow to use our weather pages